一网星座-0391星 (ONEWEB-0391 )

导读

ONEWEB-0391是英国一网(OneWeb)低轨卫星互联网星座中的一颗通信卫星,于2021年12月27日发射入轨。它运行在约1200公里的近地轨道,工作于Ku波段,依托全球信关站系统,旨在为全球提供高速宽带互联网接入服务,是OneWeb实现全球覆盖计划的重要组成部分,推动了全球卫星通信网络的建设。

基本信息
目录编号:
50471
目录名称:
ONEWEB-0391
国际标识:
2021-132C
轨道中心:
EARTH
卫星名称:
一网星座-0391星
卫星全名:
一网星座-0391星 (ONEWEB-0391 )
卫星状态:
在轨 (已飞行1723 天)
发射日期:
2021-12-27 UTC
国别 :
英国 (GB)
星等 :
--
该卫星已列入 空间交会检测服务 Space Conjunction Data Service (SCDS) ,当前飞行风险评估等级: 无高风险
轨道信息
数据来源 国际轨道数据 AOE轨道数据
星历时间 2026-09-15T19:45:54+0800
11小时前
查看轨道信息
2026-09-14T02:00:00+0800
2天前
查看轨道信息
半长轴 7571.846km 7571.843km
偏心率 0.0002008 0.0002121
轨道倾角 87.920° 87.921°
近地点辐角 125.511° 121.284°
升交点赤经 347.945° 348.292°
平近点角 234.621° 268.837°
近地点 1192.188km 1192.1km
远地点 1195.23km 1195.312km
周期 109.285分钟 109.285分钟
每日圈数 13.176502 13.17651
详细信息
平衡模式:
三轴稳定
覆盖范围:
全球
运营商:
一网卫星公司
运营商所在国:
英国
制造商(研发单位):
一网卫星公司
制造商所在国:
英国
使用方式:
暂无
卫星简介
OneWeb卫星网络由648颗重约125公斤的微型卫星组成,运行在1200公里的轨道上。 每颗卫星都能够提供至少每秒8千兆位的吞吐量,以使用其高吞吐量的Ku频段有效载荷为家庭和移动平台提供互联网接入。该卫星仍在工作。
2D轨道图
3D轨道图
轨道高度分析图
轨道倾角分析图
轨道综合分析图
查看轨道综合分析图
与全量物体交会距离演化趋势 订阅飞行安全评估服务
与全量物体交会风险概率演化趋势 订阅飞行安全评估服务